TGW510 WSSS-VVDN

Flight info

Callsign TGW510
Flight time 2h 28m
Altitude 35000
Route VMR9B VMR M771 DAMOG/N0465F360 M771 DUDIS/K0854F360 L644 CN/K0854F350 L644 AC/K0813F270 W1 BMT Q1 SADIN SADIN2K
Aircraft A320/M-SDFGHIRWYZ/LB1

Departure

Time 2026-05-06 13:46
Airport Singapore Changi Airport (WSSS)

Arrival

Time 2026-05-06 16:14
Airport Da Nang International Airport (VVDN)
Time Latitude Longitude Altitude Speed Heading
2026-05-06 13:04 1.36368 103.99410 31 ft 0 kts 323°
2026-05-06 13:06 1.36406 103.99463 30 ft 0 kts 323°
2026-05-06 13:38 1.36394 103.99473 30 ft 4 kts 313°
2026-05-06 13:38 1.36378 103.99494 30 ft 4 kts 304°
2026-05-06 13:38 1.36363 103.99512 30 ft 2 kts 323°
2026-05-06 13:38 1.36344 103.99520 30 ft 4 kts 37°
2026-05-06 13:39 1.36327 103.99502 30 ft 4 kts 53°
2026-05-06 13:39 1.36318 103.99491 30 ft 0 kts 53°
2026-05-06 13:42 1.36322 103.99496 30 ft 2 kts 53°
2026-05-06 13:42 1.36335 103.99513 30 ft 4 kts 55°
2026-05-06 13:42 1.36339 103.99545 30 ft 6 kts 104°
2026-05-06 13:42 1.36321 103.99588 30 ft 7 kts 113°
2026-05-06 13:43 1.36299 103.99641 30 ft 9 kts 113°
2026-05-06 13:43 1.36273 103.99702 30 ft 10 kts 113°
2026-05-06 13:43 1.36251 103.99752 30 ft 6 kts 113°
2026-05-06 13:43 1.36238 103.99783 30 ft 5 kts 113°
2026-05-06 13:44 1.36223 103.99819 30 ft 6 kts 113°
2026-05-06 13:44 1.36202 103.99868 30 ft 9 kts 114°
2026-05-06 13:44 1.36155 103.99881 30 ft 6 kts 206°
2026-05-06 13:44 1.36147 103.99878 30 ft 0 kts 202°
2026-05-06 13:45 1.35729 103.99700 30 ft 95 kts 203°
2026-05-06 13:45 1.34936 103.99365 31 ft 150 kts 203°
2026-05-06 13:46 1.33875 103.98906 335 ft 169 kts 204°
2026-05-06 13:46 1.32809 103.98450 974 ft 168 kts 202°
2026-05-06 13:46 1.31725 103.97994 1657 ft 167 kts 202°
2026-05-06 13:46 1.30628 103.97533 2076 ft 183 kts 202°
2026-05-06 13:47 1.29389 103.97011 2292 ft 204 kts 202°
2026-05-06 13:47 1.28010 103.96431 2453 ft 228 kts 202°
2026-05-06 13:47 1.26471 103.95783 2713 ft 251 kts 202°
2026-05-06 13:47 1.24808 103.95101 3263 ft 263 kts 198°
2026-05-06 13:48 1.22993 103.94958 3982 ft 268 kts 167°
2026-05-06 13:48 1.21345 103.95818 4691 ft 272 kts 140°
2026-05-06 13:48 1.19904 103.97059 5432 ft 275 kts 139°
2026-05-06 13:48 1.18463 103.98331 6178 ft 278 kts 139°
2026-05-06 13:49 1.17066 103.99675 6865 ft 281 kts 127°
2026-05-06 13:49 1.16247 104.01447 7517 ft 286 kts 100°
2026-05-06 13:49 1.16320 104.03426 8178 ft 289 kts 73°
2026-05-06 13:49 1.17274 104.05196 8842 ft 293 kts 52°
2026-05-06 13:50 1.18104 104.06260 9298 ft 294 kts 52°
2026-05-06 13:50 1.19400 104.07853 9957 ft 297 kts 47°
2026-05-06 13:50 1.21001 104.09244 10194 ft 316 kts 34°
2026-05-06 13:50 1.23652 104.10735 10361 ft 343 kts 26°
2026-05-06 13:51 1.25962 104.11490 10649 ft 356 kts
2026-05-06 13:51 1.28449 104.11547 11138 ft 361 kts 353°
2026-05-06 13:51 1.30109 104.11163 11492 ft 364 kts 341°
2026-05-06 13:51 1.32358 104.09981 12020 ft 369 kts 323°
2026-05-06 13:52 1.34341 104.08339 12556 ft 372 kts 320°
2026-05-06 13:52 1.36323 104.06657 13082 ft 375 kts 320°
2026-05-06 13:52 1.38320 104.04961 13610 ft 378 kts 320°
2026-05-06 13:52 1.40330 104.03311 14065 ft 380 kts 326°
2026-05-06 13:53 1.42615 104.01978 14521 ft 382 kts 337°
2026-05-06 13:53 1.45112 104.01068 14973 ft 383 kts 343°
2026-05-06 13:53 1.47662 104.00252 15436 ft 386 kts 343°
2026-05-06 13:53 1.50224 103.99428 15890 ft 389 kts 343°
2026-05-06 13:54 1.52805 103.98593 16344 ft 391 kts 343°
2026-05-06 13:54 1.55403 103.97750 16797 ft 394 kts 343°
2026-05-06 13:54 1.58021 103.96899 17250 ft 397 kts 343°
2026-05-06 13:54 1.60655 103.96043 17703 ft 400 kts 343°
2026-05-06 13:55 1.63314 103.95181 18158 ft 403 kts 343°
2026-05-06 13:55 1.65989 103.94317 18545 ft 406 kts 343°
2026-05-06 13:55 1.68681 103.93450 18943 ft 408 kts 343°
2026-05-06 13:55 1.71395 103.92573 19348 ft 411 kts 343°
2026-05-06 13:56 1.74125 103.91696 19748 ft 413 kts 346°
2026-05-06 13:56 1.76944 103.91130 20147 ft 414 kts 356°
2026-05-06 13:56 1.79817 103.90935 20552 ft 415 kts 358°
2026-05-06 13:56 1.82713 103.90759 20943 ft 418 kts 358°
2026-05-06 13:57 1.85624 103.90576 21329 ft 421 kts 358°
2026-05-06 13:57 1.88556 103.90387 21704 ft 423 kts 358°
2026-05-06 13:57 1.91501 103.90196 22063 ft 426 kts 358°
2026-05-06 13:57 1.94465 103.90003 22411 ft 428 kts 358°
2026-05-06 13:58 1.97446 103.89809 22750 ft 430 kts 358°
2026-05-06 13:58 2.00439 103.89617 23079 ft 432 kts 358°
2026-05-06 13:58 2.03451 103.89424 23399 ft 435 kts 358°
2026-05-06 13:58 2.06474 103.89228 23667 ft 437 kts 358°
2026-05-06 13:59 2.09514 103.89032 23929 ft 438 kts 358°
2026-05-06 13:59 2.12562 103.88839 24183 ft 440 kts 358°
2026-05-06 13:59 2.15582 103.88651 24438 ft 442 kts 358°
2026-05-06 13:59 2.18660 103.88462 24693 ft 443 kts 358°
2026-05-06 14:00 2.21741 103.88269 24942 ft 445 kts 358°
2026-05-06 14:00 2.24841 103.88070 25189 ft 447 kts 358°
2026-05-06 14:00 2.27948 103.87869 25432 ft 449 kts 358°
2026-05-06 14:00 2.31072 103.87669 25680 ft 450 kts 358°
2026-05-06 14:01 2.34205 103.87515 25920 ft 451 kts
2026-05-06 14:01 2.37319 103.87793 26151 ft 450 kts 12°
2026-05-06 14:01 2.40341 103.88589 26379 ft 449 kts 22°
2026-05-06 14:01 2.43179 103.89879 26599 ft 448 kts 31°
2026-05-06 14:02 2.45833 103.91516 26809 ft 449 kts 34°
2026-05-06 14:02 2.48487 103.93178 27026 ft 451 kts 33°
2026-05-06 14:02 2.51153 103.94842 27246 ft 453 kts 33°
2026-05-06 14:02 2.53833 103.96510 27466 ft 454 kts 33°
2026-05-06 14:03 2.56514 103.98173 27793 ft 453 kts 33°
2026-05-06 14:03 2.59190 103.99832 28121 ft 452 kts 33°
2026-05-06 14:03 2.61860 104.01490 28453 ft 452 kts 33°
2026-05-06 14:03 2.64527 104.03150 28785 ft 451 kts 33°
2026-05-06 14:04 2.67189 104.04807 29130 ft 451 kts 33°
2026-05-06 14:04 2.69852 104.06465 29478 ft 450 kts 33°
2026-05-06 14:04 2.72510 104.08116 29818 ft 450 kts 33°
2026-05-06 14:04 2.75129 104.09746 30125 ft 449 kts 33°
2026-05-06 14:05 2.77817 104.11423 30427 ft 449 kts 33°
2026-05-06 14:05 2.80426 104.13052 30722 ft 448 kts 33°
2026-05-06 14:05 2.83068 104.14700 31024 ft 448 kts 33°
2026-05-06 14:05 2.85712 104.16346 31336 ft 447 kts 33°
2026-05-06 14:06 2.88348 104.17987 31657 ft 446 kts 33°
2026-05-06 14:06 2.90980 104.19625 31976 ft 446 kts 33°
2026-05-06 14:06 2.93613 104.21263 32292 ft 445 kts 33°
2026-05-06 14:06 2.96239 104.22896 32622 ft 444 kts 33°
2026-05-06 14:07 2.98860 104.24527 32930 ft 444 kts 33°
2026-05-06 14:07 3.01480 104.26158 33227 ft 443 kts 33°
2026-05-06 14:07 3.04094 104.27788 33529 ft 443 kts 33°
2026-05-06 14:07 3.06705 104.29419 33813 ft 442 kts 33°
2026-05-06 14:08 3.09306 104.31060 34072 ft 441 kts 33°
2026-05-06 14:08 3.11894 104.32705 34323 ft 441 kts 33°
2026-05-06 14:08 3.14478 104.34351 34584 ft 440 kts 33°
2026-05-06 14:08 3.17064 104.35976 34838 ft 439 kts 33°
2026-05-06 14:09 3.19655 104.37584 35096 ft 438 kts 33°
2026-05-06 14:09 3.22244 104.39184 35344 ft 437 kts 33°
2026-05-06 14:09 3.24823 104.40776 35592 ft 436 kts 33°
2026-05-06 14:09 3.27399 104.42369 35805 ft 435 kts 33°
2026-05-06 14:10 3.32568 104.45579 35898 ft 442 kts 33°
2026-05-06 14:10 3.37808 104.48845 35901 ft 451 kts 33°
2026-05-06 14:11 3.43152 104.52167 35897 ft 453 kts 33°
2026-05-06 14:11 3.48512 104.55493 35898 ft 454 kts 33°
2026-05-06 14:12 3.53882 104.58823 35895 ft 454 kts 33°
2026-05-06 14:12 3.59254 104.62155 35899 ft 454 kts 33°
2026-05-06 14:13 3.64622 104.65497 35905 ft 455 kts 33°
2026-05-06 14:13 3.69994 104.68840 35904 ft 454 kts 33°
2026-05-06 14:14 3.75368 104.72174 35903 ft 455 kts 33°
2026-05-06 14:14 3.80747 104.75512 35910 ft 455 kts 33°
2026-05-06 14:15 3.86118 104.78863 35910 ft 455 kts 33°
2026-05-06 14:15 3.91496 104.82215 35910 ft 455 kts 33°
2026-05-06 14:16 3.96879 104.85559 35912 ft 456 kts 33°
2026-05-06 14:16 4.02231 104.88886 35913 ft 456 kts 33°
2026-05-06 14:17 4.07622 104.92238 35914 ft 456 kts 33°
2026-05-06 14:17 4.13007 104.95597 35917 ft 456 kts 33°
2026-05-06 14:18 4.18399 104.98955 35918 ft 456 kts 33°
2026-05-06 14:18 4.23784 105.02308 35915 ft 456 kts 33°
2026-05-06 14:19 4.29172 105.05658 35914 ft 456 kts 33°
2026-05-06 14:19 4.34557 105.09001 35910 ft 455 kts 33°
2026-05-06 14:20 4.39945 105.12347 35908 ft 455 kts 33°
2026-05-06 14:20 4.45327 105.15696 35908 ft 455 kts 33°
2026-05-06 14:21 4.50708 105.19050 35910 ft 456 kts 33°
2026-05-06 14:21 4.56057 105.22380 35913 ft 456 kts 33°
2026-05-06 14:22 4.61452 105.25723 35913 ft 456 kts 33°
2026-05-06 14:22 4.66847 105.29063 35915 ft 456 kts 33°
2026-05-06 14:23 4.72234 105.32418 35912 ft 456 kts 33°
2026-05-06 14:23 4.77615 105.35776 35910 ft 456 kts 33°
2026-05-06 14:24 4.82995 105.39137 35910 ft 456 kts 34°
2026-05-06 14:24 4.88319 105.42585 35907 ft 456 kts 34°
2026-05-06 14:25 4.93619 105.46079 35909 ft 456 kts 34°
2026-05-06 14:25 4.98895 105.49532 35912 ft 456 kts 34°
2026-05-06 14:26 5.04219 105.52998 35911 ft 456 kts 34°
2026-05-06 14:26 5.09554 105.56464 35916 ft 457 kts 34°
2026-05-06 14:27 5.14889 105.59936 35916 ft 457 kts 34°
2026-05-06 14:27 5.20224 105.63410 35917 ft 457 kts 34°
2026-05-06 14:28 5.25562 105.66889 35918 ft 457 kts 34°
2026-05-06 14:28 5.30898 105.70369 35918 ft 457 kts 34°
2026-05-06 14:29 5.36232 105.73853 35918 ft 457 kts 34°
2026-05-06 14:29 5.41572 105.77331 35917 ft 457 kts 34°
2026-05-06 14:30 5.46903 105.80810 35916 ft 457 kts 34°
2026-05-06 14:30 5.52238 105.84286 35917 ft 457 kts 34°
2026-05-06 14:31 5.57580 105.87767 35916 ft 458 kts 34°
2026-05-06 14:31 5.62882 105.91231 35916 ft 458 kts 34°
2026-05-06 14:32 5.68219 105.94718 35915 ft 458 kts 34°
2026-05-06 14:32 5.73554 105.98204 35914 ft 458 kts 34°
2026-05-06 14:33 5.78896 106.01691 35915 ft 458 kts 34°
2026-05-06 14:33 5.84235 106.05174 35915 ft 458 kts 34°
2026-05-06 14:34 5.89580 106.08659 35914 ft 458 kts 34°
2026-05-06 14:34 5.94913 106.12143 35915 ft 458 kts 34°
2026-05-06 14:35 6.00209 106.15613 35911 ft 458 kts 34°
2026-05-06 14:35 6.05547 106.19103 35913 ft 458 kts 34°
2026-05-06 14:36 6.10884 106.22589 35913 ft 458 kts 34°
2026-05-06 14:36 6.16220 106.26073 35913 ft 458 kts 34°
2026-05-06 14:37 6.21554 106.29567 35912 ft 457 kts 34°
2026-05-06 14:37 6.26885 106.33060 35911 ft 458 kts 34°
2026-05-06 14:38 6.32182 106.36526 35911 ft 457 kts 34°
2026-05-06 14:38 6.37523 106.40012 35909 ft 458 kts 34°
2026-05-06 14:39 6.42856 106.43501 35908 ft 458 kts 34°
2026-05-06 14:39 6.48187 106.47004 35907 ft 457 kts 34°
2026-05-06 14:40 6.53514 106.50506 35907 ft 457 kts 34°
2026-05-06 14:40 6.58847 106.54000 35906 ft 458 kts 34°
2026-05-06 14:41 6.64183 106.57491 35906 ft 458 kts 34°
2026-05-06 14:41 6.69519 106.60994 35908 ft 458 kts 34°
2026-05-06 14:42 6.74858 106.64489 35910 ft 458 kts 34°
2026-05-06 14:42 6.80194 106.67993 35909 ft 458 kts 34°
2026-05-06 14:43 6.85536 106.71498 35909 ft 458 kts 34°
2026-05-06 14:43 6.90838 106.74982 35912 ft 458 kts 34°
2026-05-06 14:44 6.96234 106.78400 35909 ft 459 kts 27°
2026-05-06 14:45 7.05540 106.80390 35905 ft 463 kts 357°
2026-05-06 14:45 7.11962 106.79741 35899 ft 464 kts 355°
2026-05-06 14:46 7.18389 106.79062 35901 ft 465 kts 355°
2026-05-06 14:46 7.24823 106.78383 35901 ft 465 kts 355°
2026-05-06 14:47 7.31267 106.77703 35902 ft 466 kts 355°
2026-05-06 14:47 7.37715 106.77025 35907 ft 466 kts 355°
2026-05-06 14:48 7.43075 106.76453 35908 ft 466 kts 355°
2026-05-06 14:48 7.50566 106.75656 35909 ft 466 kts 355°
2026-05-06 14:49 7.55964 106.75093 35912 ft 466 kts 355°
2026-05-06 14:49 7.62407 106.74410 35910 ft 466 kts 355°
2026-05-06 14:50 7.68850 106.73728 35911 ft 466 kts 355°
2026-05-06 14:50 7.75301 106.73043 35913 ft 466 kts 355°
2026-05-06 14:51 7.81749 106.72359 35908 ft 466 kts 355°
2026-05-06 14:51 7.88151 106.71687 35907 ft 466 kts 355°
2026-05-06 14:52 7.94602 106.70996 35910 ft 466 kts 355°
2026-05-06 14:52 8.01051 106.70307 35907 ft 466 kts 355°
2026-05-06 14:53 8.07508 106.69627 35905 ft 467 kts 355°
2026-05-06 14:53 8.13965 106.68939 35903 ft 467 kts 355°
2026-05-06 14:54 8.20424 106.68261 35906 ft 467 kts 355°
2026-05-06 14:54 8.26884 106.67578 35899 ft 467 kts 355°
2026-05-06 14:55 8.33347 106.66887 35903 ft 467 kts 355°
2026-05-06 14:55 8.39809 106.66205 35902 ft 467 kts 355°
2026-05-06 14:56 8.46278 106.65516 35898 ft 467 kts 355°
2026-05-06 14:56 8.52746 106.64824 35903 ft 468 kts 355°
2026-05-06 14:57 8.59221 106.64137 35900 ft 467 kts 355°
2026-05-06 14:57 8.65645 106.63461 35902 ft 467 kts 354°
2026-05-06 14:58 8.72121 106.62923 35904 ft 466 kts
2026-05-06 14:58 8.78485 106.63965 35901 ft 464 kts 15°
2026-05-06 14:59 8.84743 106.65574 35900 ft 464 kts 15°
2026-05-06 14:59 8.91011 106.67170 35902 ft 465 kts 14°
2026-05-06 15:00 8.97286 106.68761 35898 ft 465 kts 15°
2026-05-06 15:00 9.03564 106.70362 35895 ft 466 kts 15°
2026-05-06 15:01 9.09852 106.71967 35889 ft 466 kts 15°
2026-05-06 15:01 9.16145 106.73570 35886 ft 467 kts 15°
2026-05-06 15:02 9.22449 106.75178 35885 ft 468 kts 15°
2026-05-06 15:02 9.28762 106.76793 35883 ft 468 kts 15°
2026-05-06 15:03 9.35042 106.78400 35886 ft 469 kts 15°
2026-05-06 15:03 9.41374 106.80023 35893 ft 470 kts 14°
2026-05-06 15:04 9.47710 106.81642 35900 ft 470 kts 15°
2026-05-06 15:04 9.54052 106.83269 35906 ft 470 kts 15°
2026-05-06 15:05 9.60397 106.84895 35907 ft 470 kts 15°
2026-05-06 15:05 9.66739 106.86517 35908 ft 470 kts 15°
2026-05-06 15:06 9.73091 106.88134 35905 ft 470 kts 15°
2026-05-06 15:06 9.79437 106.89746 35905 ft 470 kts 14°
2026-05-06 15:07 9.85744 106.91342 35909 ft 470 kts 14°
2026-05-06 15:07 9.92090 106.92954 35911 ft 470 kts 14°
2026-05-06 15:08 9.98426 106.94572 35911 ft 469 kts 14°
2026-05-06 15:08 10.04753 106.96188 35912 ft 469 kts 14°
2026-05-06 15:09 10.11071 106.97794 35910 ft 468 kts 14°
2026-05-06 15:09 10.17382 106.99402 35908 ft 468 kts 14°
2026-05-06 15:10 10.23690 107.01013 35908 ft 468 kts 14°
2026-05-06 15:10 10.29999 107.02624 35909 ft 468 kts 14°
2026-05-06 15:11 10.36309 107.04232 35910 ft 467 kts 14°
2026-05-06 15:11 10.42578 107.05828 35910 ft 467 kts 14°
2026-05-06 15:12 10.48884 107.07438 35910 ft 467 kts 14°
2026-05-06 15:12 10.55192 107.09040 35911 ft 467 kts 14°
2026-05-06 15:13 10.61498 107.10628 35911 ft 467 kts 14°
2026-05-06 15:13 10.67804 107.12212 35917 ft 467 kts 14°
2026-05-06 15:14 10.74105 107.13803 35912 ft 467 kts 14°
2026-05-06 15:14 10.80402 107.15404 35918 ft 466 kts 14°
2026-05-06 15:15 10.86695 107.16996 35916 ft 466 kts 14°
2026-05-06 15:15 10.92962 107.18644 35917 ft 465 kts 19°
2026-05-06 15:16 10.98789 107.21452 35918 ft 464 kts 28°
2026-05-06 15:16 11.04450 107.24508 35916 ft 463 kts 28°
2026-05-06 15:17 11.10146 107.27572 35909 ft 463 kts 28°
2026-05-06 15:17 11.15841 107.30630 35913 ft 463 kts 28°
2026-05-06 15:18 11.21531 107.33706 35915 ft 463 kts 28°
2026-05-06 15:18 11.27217 107.36777 35913 ft 462 kts 28°
2026-05-06 15:19 11.32905 107.39841 35912 ft 462 kts 28°
2026-05-06 15:19 11.38592 107.42905 35920 ft 462 kts 28°
2026-05-06 15:20 11.44281 107.45965 35926 ft 462 kts 28°
2026-05-06 15:20 11.49970 107.49031 35931 ft 462 kts 28°
2026-05-06 15:21 11.55614 107.52082 35934 ft 462 kts 28°
2026-05-06 15:21 11.61300 107.55152 35939 ft 462 kts 28°
2026-05-06 15:22 11.66987 107.58220 35943 ft 463 kts 28°
2026-05-06 15:22 11.72674 107.61293 35946 ft 463 kts 28°
2026-05-06 15:23 11.78366 107.64370 35948 ft 463 kts 28°
2026-05-06 15:23 11.84057 107.67451 35950 ft 463 kts 28°
2026-05-06 15:24 11.89752 107.70541 35954 ft 464 kts 28°
2026-05-06 15:24 11.95450 107.73631 35954 ft 464 kts 28°
2026-05-06 15:25 12.01157 107.76718 35955 ft 464 kts 28°
2026-05-06 15:25 12.06834 107.79784 35956 ft 465 kts 28°
2026-05-06 15:26 12.12545 107.82882 35958 ft 465 kts 28°
2026-05-06 15:26 12.18262 107.85988 35950 ft 465 kts 28°
2026-05-06 15:27 12.23977 107.89089 35952 ft 465 kts 28°
2026-05-06 15:27 12.29701 107.92202 35953 ft 466 kts 28°
2026-05-06 15:28 12.35428 107.95318 35949 ft 466 kts 28°
2026-05-06 15:28 12.41158 107.98430 35947 ft 466 kts 28°
2026-05-06 15:29 12.46893 108.01543 35945 ft 466 kts 28°
2026-05-06 15:29 12.52622 108.04655 35942 ft 466 kts 28°
2026-05-06 15:30 12.58354 108.07783 35944 ft 467 kts 28°
2026-05-06 15:30 12.64085 108.10808 35938 ft 467 kts 22°
2026-05-06 15:31 12.70372 108.12357 35935 ft 466 kts
2026-05-06 15:31 12.76857 108.12544 35931 ft 467 kts
2026-05-06 15:32 12.86608 108.12777 35941 ft 467 kts
2026-05-06 15:32 12.93112 108.12936 35951 ft 467 kts
2026-05-06 15:33 12.99611 108.13095 35952 ft 467 kts
2026-05-06 15:33 13.06098 108.13252 35951 ft 466 kts
2026-05-06 15:34 13.12584 108.13405 35952 ft 466 kts
2026-05-06 15:34 13.19068 108.13561 35952 ft 466 kts
2026-05-06 15:35 13.25541 108.13719 35950 ft 465 kts
2026-05-06 15:35 13.32008 108.13875 35949 ft 465 kts
2026-05-06 15:36 13.38472 108.14020 35953 ft 464 kts 360°
2026-05-06 15:36 13.44925 108.14156 35954 ft 464 kts 360°
2026-05-06 15:37 13.51373 108.14295 35954 ft 463 kts 360°
2026-05-06 15:37 13.57817 108.14434 35963 ft 463 kts 360°
2026-05-06 15:38 13.64248 108.14579 35963 ft 462 kts 360°
2026-05-06 15:38 13.70632 108.14724 35969 ft 461 kts 360°
2026-05-06 15:39 13.76896 108.14859 35975 ft 460 kts 360°
2026-05-06 15:39 13.83295 108.14996 35979 ft 459 kts 360°
2026-05-06 15:40 13.89680 108.15133 35985 ft 459 kts 360°
2026-05-06 15:40 13.96062 108.15271 35986 ft 458 kts 360°
2026-05-06 15:41 14.02437 108.15417 35991 ft 458 kts 360°
2026-05-06 15:41 14.08810 108.15557 35994 ft 458 kts 360°
2026-05-06 15:42 14.15179 108.15691 35695 ft 457 kts 360°
2026-05-06 15:42 14.18359 108.15757 35458 ft 457 kts 360°
2026-05-06 15:42 14.21537 108.15822 35227 ft 457 kts 360°
2026-05-06 15:43 14.24719 108.15889 34711 ft 459 kts 360°
2026-05-06 15:43 14.27928 108.15957 33834 ft 465 kts 360°
2026-05-06 15:43 14.31180 108.16028 32897 ft 469 kts
2026-05-06 15:43 14.34450 108.16100 32022 ft 472 kts
2026-05-06 15:44 14.37731 108.16173 31450 ft 469 kts
2026-05-06 15:44 14.40980 108.16248 30873 ft 466 kts
2026-05-06 15:44 14.44167 108.16322 30285 ft 464 kts
2026-05-06 15:44 14.47387 108.16393 29650 ft 462 kts
2026-05-06 15:45 14.50585 108.16461 29068 ft 457 kts
2026-05-06 15:45 14.53753 108.16528 28478 ft 453 kts
2026-05-06 15:45 14.56895 108.16593 27910 ft 450 kts
2026-05-06 15:45 14.59005 108.16637 27521 ft 448 kts
2026-05-06 15:46 14.62112 108.16704 26950 ft 445 kts
2026-05-06 15:46 14.65156 108.16772 26391 ft 442 kts
2026-05-06 15:46 14.68224 108.16841 25848 ft 440 kts
2026-05-06 15:46 14.71274 108.16909 25305 ft 437 kts
2026-05-06 15:47 14.74306 108.16974 24773 ft 434 kts
2026-05-06 15:47 14.77324 108.17041 24250 ft 432 kts
2026-05-06 15:47 14.80320 108.17109 23760 ft 430 kts
2026-05-06 15:47 14.83308 108.17179 23191 ft 428 kts
2026-05-06 15:48 14.86271 108.17246 22711 ft 424 kts
2026-05-06 15:48 14.89207 108.17309 22213 ft 421 kts
2026-05-06 15:48 14.92126 108.17372 21725 ft 418 kts
2026-05-06 15:48 14.95026 108.17433 21217 ft 416 kts
2026-05-06 15:49 14.97916 108.17496 20720 ft 415 kts
2026-05-06 15:49 15.00796 108.17560 20202 ft 414 kts
2026-05-06 15:49 15.03670 108.17624 19682 ft 410 kts
2026-05-06 15:49 15.06470 108.17645 19155 ft 395 kts 356°
2026-05-06 15:50 15.09133 108.17219 18647 ft 381 kts 345°
2026-05-06 15:50 15.11598 108.16350 18124 ft 368 kts 339°
2026-05-06 15:50 15.13959 108.15440 17612 ft 358 kts 339°
2026-05-06 15:50 15.16285 108.14545 17127 ft 355 kts 339°
2026-05-06 15:51 15.18601 108.13654 16646 ft 355 kts 339°
2026-05-06 15:51 15.20916 108.12763 16156 ft 355 kts 339°
2026-05-06 15:51 15.23227 108.11874 15686 ft 355 kts 339°
2026-05-06 15:51 15.25542 108.10983 15191 ft 355 kts 339°
2026-05-06 15:52 15.27856 108.10093 14693 ft 355 kts 339°
2026-05-06 15:52 15.30175 108.09200 14191 ft 356 kts 339°
2026-05-06 15:52 15.32464 108.08319 13679 ft 356 kts 339°
2026-05-06 15:52 15.34785 108.07424 13144 ft 356 kts 339°
2026-05-06 15:53 15.37099 108.06532 12632 ft 354 kts 339°
2026-05-06 15:53 15.39437 108.05759 12129 ft 352 kts 349°
2026-05-06 15:53 15.41865 108.05565 11633 ft 350 kts
2026-05-06 15:53 15.44254 108.06002 11132 ft 348 kts 18°
2026-05-06 15:54 15.46468 108.06993 10642 ft 347 kts 27°
2026-05-06 15:54 15.48601 108.08097 10303 ft 333 kts 27°
2026-05-06 15:54 15.50597 108.09131 10161 ft 310 kts 27°
2026-05-06 15:54 15.52493 108.10112 9823 ft 302 kts 27°
2026-05-06 15:55 15.54354 108.11075 9685 ft 297 kts 27°
2026-05-06 15:55 15.56194 108.12027 9546 ft 296 kts 27°
2026-05-06 15:55 15.58035 108.12979 9225 ft 294 kts 27°
2026-05-06 15:55 15.59864 108.13922 8869 ft 294 kts 27°
2026-05-06 15:56 15.61696 108.14868 8480 ft 294 kts 27°
2026-05-06 15:56 15.63506 108.15803 8091 ft 295 kts 27°
2026-05-06 15:56 15.65316 108.16739 7693 ft 286 kts 27°
2026-05-06 15:56 15.67063 108.17642 7327 ft 276 kts 27°
2026-05-06 15:57 15.68754 108.18516 6966 ft 267 kts 27°
2026-05-06 15:57 15.70389 108.19363 6615 ft 259 kts 27°
2026-05-06 15:57 15.71975 108.20186 6262 ft 251 kts 27°
2026-05-06 15:57 15.73513 108.20986 5934 ft 246 kts 27°
2026-05-06 15:58 15.75048 108.21784 5601 ft 247 kts 27°
2026-05-06 15:58 15.76589 108.22585 5272 ft 249 kts 27°
2026-05-06 15:58 15.78136 108.23388 5026 ft 246 kts 27°
2026-05-06 15:58 15.79630 108.24162 4992 ft 234 kts 28°
2026-05-06 15:59 15.80930 108.25133 4998 ft 230 kts 51°
2026-05-06 15:59 15.81649 108.26589 4996 ft 228 kts 79°
2026-05-06 15:59 15.81629 108.28218 4998 ft 228 kts 106°
2026-05-06 15:59 15.80882 108.29652 4997 ft 228 kts 134°
2026-05-06 16:00 15.79576 108.30569 4994 ft 229 kts 161°
2026-05-06 16:00 15.78015 108.30924 4996 ft 231 kts 170°
2026-05-06 16:00 15.76427 108.31186 4991 ft 231 kts 171°
2026-05-06 16:00 15.74839 108.31430 4998 ft 231 kts 171°
2026-05-06 16:01 15.73250 108.31669 4991 ft 231 kts 171°
2026-05-06 16:01 15.71657 108.31912 4990 ft 231 kts 171°
2026-05-06 16:01 15.70068 108.32156 4991 ft 231 kts 172°
2026-05-06 16:01 15.68491 108.32080 4987 ft 232 kts 196°
2026-05-06 16:02 15.67092 108.31260 4988 ft 234 kts 224°
2026-05-06 16:02 15.66223 108.29844 4989 ft 235 kts 253°
2026-05-06 16:02 15.66104 108.28167 4999 ft 236 kts 281°
2026-05-06 16:02 15.66761 108.26624 4989 ft 235 kts 310°
2026-05-06 16:03 15.68035 108.25588 4990 ft 234 kts 338°
2026-05-06 16:03 15.69616 108.25182 5005 ft 239 kts 351°
2026-05-06 16:03 15.71280 108.24907 4999 ft 244 kts 353°
2026-05-06 16:03 15.72966 108.24649 4999 ft 245 kts 353°
2026-05-06 16:04 15.74654 108.24393 4997 ft 245 kts 353°
2026-05-06 16:04 15.76333 108.24136 4995 ft 239 kts 353°
2026-05-06 16:04 15.77961 108.23883 4991 ft 235 kts 352°
2026-05-06 16:04 15.79581 108.23726 4990 ft 233 kts
2026-05-06 16:05 15.81084 108.24273 4995 ft 230 kts 37°
2026-05-06 16:05 15.82129 108.25499 4999 ft 229 kts 65°
2026-05-06 16:05 15.82472 108.27089 5001 ft 228 kts 94°
2026-05-06 16:05 15.82032 108.28652 4995 ft 228 kts 122°
2026-05-06 16:06 15.80924 108.29808 4995 ft 229 kts 150°
2026-05-06 16:06 15.79412 108.30313 5003 ft 231 kts 169°
2026-05-06 16:06 15.77776 108.30588 5000 ft 243 kts 171°
2026-05-06 16:06 15.76133 108.30688 4981 ft 231 kts 193°
2026-05-06 16:07 15.74804 108.29870 4988 ft 224 kts 229°
2026-05-06 16:07 15.74065 108.28456 4993 ft 225 kts 255°
2026-05-06 16:07 15.73976 108.26846 4998 ft 225 kts 281°
2026-05-06 16:07 15.74557 108.25351 4997 ft 225 kts 307°
2026-05-06 16:08 15.75697 108.24263 4995 ft 224 kts 333°
2026-05-06 16:08 15.77119 108.23781 4879 ft 215 kts 353°
2026-05-06 16:08 15.78592 108.23571 4653 ft 213 kts 353°
2026-05-06 16:08 15.80056 108.23365 4378 ft 211 kts 353°
2026-05-06 16:09 15.81505 108.23156 4142 ft 208 kts 353°
2026-05-06 16:09 15.82930 108.22950 3851 ft 206 kts 353°
2026-05-06 16:09 15.84339 108.22746 3582 ft 203 kts 353°
2026-05-06 16:09 15.85727 108.22544 3331 ft 200 kts 352°
2026-05-06 16:10 15.87099 108.22345 3077 ft 198 kts 352°
2026-05-06 16:10 15.88452 108.22149 2828 ft 195 kts 352°
2026-05-06 16:10 15.89784 108.21956 2560 ft 192 kts 353°
2026-05-06 16:10 15.91099 108.21766 2321 ft 190 kts 352°
2026-05-06 16:11 15.92382 108.21580 2070 ft 180 kts 352°
2026-05-06 16:11 15.93580 108.21406 1836 ft 168 kts 353°
2026-05-06 16:11 15.94703 108.21242 1637 ft 159 kts 353°
2026-05-06 16:11 15.95791 108.21085 1431 ft 157 kts 353°
2026-05-06 16:12 15.96867 108.20929 1247 ft 155 kts 353°
2026-05-06 16:12 15.97927 108.20775 1048 ft 153 kts 352°
2026-05-06 16:12 15.98975 108.20624 857 ft 150 kts 352°
2026-05-06 16:12 16.00004 108.20479 671 ft 148 kts 352°
2026-05-06 16:13 16.01019 108.20335 466 ft 146 kts 352°
2026-05-06 16:13 16.02025 108.20179 259 ft 146 kts 352°
2026-05-06 16:13 16.03036 108.20037 83 ft 147 kts 352°
2026-05-06 16:13 16.03973 108.19903 33 ft 115 kts 352°
2026-05-06 16:14 16.04605 108.19809 34 ft 75 kts 352°
2026-05-06 16:14 16.05091 108.19738 33 ft 66 kts 352°
2026-05-06 16:14 16.05510 108.19677 31 ft 52 kts 352°
2026-05-06 16:14 16.05693 108.19658 30 ft 12 kts 10°
2026-05-06 16:15 16.05724 108.19711 32 ft 9 kts 90°
2026-05-06 16:15 16.05730 108.19782 31 ft 11 kts 81°
2026-05-06 16:15 16.05743 108.19868 32 ft 13 kts 81°
2026-05-06 16:15 16.05756 108.19957 34 ft 11 kts 82°
2026-05-06 16:16 16.05765 108.20025 34 ft 7 kts 82°
2026-05-06 16:16 16.05769 108.20055 34 ft 5 kts 82°
2026-05-06 16:16 16.05774 108.20092 34 ft 5 kts 82°
2026-05-06 16:16 16.05778 108.20118 34 ft 2 kts 82°
2026-05-06 16:17 16.05780 108.20130 34 ft 0 kts 81°